W9IF-4 Weather Reports


Display with metric or nautical units.
time (UTC)temp
F
wind
direction
speed
MPH
gust
MPH
rain 1hr
in
rain 24hr
in
rain mn
in
humidity
%
barometer
mb
20160629052400 66 248 0.0 0.0 0.00 0.00 0.00 1014.4
20160629052300 66 248 0.0 0.0 0.00 0.00 0.00 1014.4
20160629052100 66 248 0.0 0.0 0.00 0.00 0.00 1014.4
20160629051900 66 248 0.0 0.0 0.00 0.00 0.00 1014.4
20160629051800 66 248 0.0 0.0 0.00 0.00 0.00 1014.3
20160629051600 66 257 0.0 0.0 0.00 0.00 0.00 1014.4
20160629051500 66 262 0.0 0.0 0.00 0.00 0.00 1014.4
20160629051400 66 262 0.0 0.0 0.00 0.00 0.00 1014.4
20160629051300 66 262 0.0 0.0 0.00 0.00 0.00 1014.4
20160629051200 66 262 0.0 0.0 0.00 0.00 0.00 1014.4
20160629051100 66 262 0.0 0.0 0.00 0.00 0.00 1014.4
20160629051000 66 262 0.0 0.0 0.00 0.00 0.00 1014.4
20160629050900 66 262 0.0 0.0 0.00 0.00 0.00 1014.4
20160629050800 66 262 0.0 0.0 0.00 0.00 0.00 1014.4
20160629050700 66 262 0.0 0.0 0.00 0.00 0.00 1014.4
20160629050400 66 262 0.0 0.0 0.00 0.00 0.00 1014.4
20160629050300 66 262 0.0 0.0 0.00 0.00 0.00 1014.4
20160629050100 66 262 0.0 0.0 0.00 0.00 0.00 1014.4
20160629050000 66 262 0.0 0.0 0.00 0.00 0.00 1014.4
20160629045800 66 262 0.0 0.0 0.00 0.00 0.00 1014.3
20160629045500 66 262 0.0 0.0 0.00 0.00 0.00 1014.4
20160629045400 66 262 0.0 0.0 0.00 0.00 0.00 1014.3
20160629045200 66 262 0.0 0.0 0.00 0.00 0.00 1014.3
20160629045100 66 262 0.0 0.0 0.00 0.00 0.00 1014.3
20160629044900 67 262 0.0 0.0 0.00 0.00 0.00 1014.3
20160629044800 66 262 0.0 0.0 0.00 0.00 0.00 1014.3
20160629044600 66 262 0.0 0.0 0.00 0.00 0.00 1014.4
20160629044300 66 262 0.0 0.0 0.00 0.00 0.00 1014.4
20160629044000 66 262 0.0 0.0 0.00 0.00 0.00 1014.3
20160629043900 66 262 0.0 0.0 0.00 0.00 0.00 1014.3
20160629043700 66 262 0.0 0.0 0.00 0.00 0.00 1014.3
20160629043500 66 262 0.0 0.0 0.00 0.00 0.00 1014.2
20160629043400 66 262 0.0 0.0 0.00 0.00 0.00 1014.2
20160629043300 67 262 0.0 0.0 0.00 0.00 0.00 1014.2
20160629043200 66 262 0.0 0.0 0.00 0.00 0.00 1014.2
20160629043000 66 318 0.0 0.0 0.00 0.00 0.00 1014.2
20160629042900 66 318 0.0 0.0 0.00 0.00 0.00 1014.2
20160629042800 66 318 0.0 0.0 0.00 0.00 0.00 1014.1
20160629042600 66 318 0.0 0.0 0.00 0.00 0.00 1014.1
20160629042500 66 318 0.0 0.0 0.00 0.00 0.00 1014.1
20160629042400 66 318 0.0 0.0 0.00 0.00 0.00 1014.1
20160629042300 66 318 0.0 0.0 0.00 0.00 0.00 1014.1
20160629042200 66 318 0.0 0.0 0.00 0.00 0.00 1014.1
20160629042100 66 318 0.0 0.0 0.00 0.00 0.00 1014.1
20160629041859 66 318 0.0 0.0 0.00 0.00 0.00 1014.0
20160629041800 66 318 0.0 0.0 0.00 0.00 0.00 1014.0
20160629041600 66 318 0.0 0.0 0.00 0.00 0.00 1014.0
20160629041400 66 318 0.0 0.0 0.00 0.00 0.00 1014.0
20160629041300 66 318 0.0 0.0 0.00 0.00 0.00 1014.0
20160629041100 66 318 0.0 0.0 0.00 0.00 0.00 1013.9
20160629040900 66 318 0.0 0.0 0.00 0.00 0.00 1013.9
20160629040800 66 307 0.0 0.0 0.00 0.00 0.00 1013.9
20160629040600 66 294 0.0 0.0 0.00 0.00 0.00 1013.9
20160629040359 66 294 0.0 0.0 0.00 0.00 0.00 1013.9
20160629040200 66 307 0.0 0.0 0.00 0.00 0.00 1013.9
20160629040000 66 307 0.0 0.0 0.00 0.00 0.00 1013.9
20160629035659 66 307 0.0 0.0 0.00 0.00 0.00 1013.9
20160629035559 66 307 0.0 0.0 0.00 0.00 0.00 1013.9
20160629035459 65 307 0.0 0.0 0.00 0.00 0.00 1013.9
20160629035259 66 307 0.0 0.0 0.00 0.00 0.00 1013.9
20160629035159 66 307 0.0 0.0 0.00 0.00 0.00 1013.9
20160629035059 66 307 0.0 0.0 0.00 0.00 0.00 1013.9
20160629034959 65 307 0.0 0.0 0.00 0.00 0.00 1013.9
20160629034859 66 307 0.0 0.0 0.00 0.00 0.00 1013.9
20160629034759 66 307 0.0 0.0 0.00 0.00 0.00 1013.9
20160629034559 66 307 0.0 0.0 0.00 0.00 0.00 1014.0
20160629034459 66 307 0.0 0.0 0.00 0.00 0.00 1013.9
20160629034359 66 307 0.0 0.0 0.00 0.00 0.00 1013.9
20160629034259 66 307 0.0 0.0 0.00 0.00 0.00 1013.9
20160629034159 65 307 0.0 0.0 0.00 0.00 0.00 1013.9
20160629033959 66 307 0.0 0.0 0.00 0.00 0.00 1013.9
20160629033859 66 315 0.0 0.0 0.00 0.00 0.00 1013.9
20160629033759 66 315 0.0 0.0 0.00 0.00 0.00 1013.9
20160629033659 66 315 0.0 0.0 0.00 0.00 0.00 1013.9
20160629033559 66 298 5.0 0.0 0.00 0.00 0.00 1013.9
20160629033459 66 290 6.0 0.0 0.00 0.00 0.00 1013.9
20160629033400 66 307 0.0 0.0 0.00 0.00 0.00 1013.9
20160629033259 66 307 5.0 0.0 0.00 0.00 0.00 1013.9
20160629033159 66 295 7.0 0.0 0.00 0.00 0.00 1013.9
20160629033059 66 304 5.0 0.0 0.00 0.00 0.00 1013.8
20160629032959 66 270 0.0 0.0 0.00 0.00 0.00 1013.9
20160629032859 66 270 0.0 0.0 0.00 0.00 0.00 1013.8
20160629032759 66 270 0.0 0.0 0.00 0.00 0.00 1013.8
20160629032659 66 270 0.0 0.0 0.00 0.00 0.00 1013.8
20160629032559 66 285 7.0 0.0 0.00 0.00 0.00 1013.8
20160629032459 66 287 7.0 0.0 0.00 0.00 0.00 1013.8
20160629032359 66 298 6.0 0.0 0.00 0.00 0.00 1013.8
20160629032259 66 280 5.0 0.0 0.00 0.00 0.00 1013.8
20160629032159 66 277 0.0 0.0 0.00 0.00 0.00 1013.9
20160629031959 66 288 5.0 0.0 0.00 0.00 0.00 1013.8
20160629031859 66 294 5.0 0.0 0.00 0.00 0.00 1013.8
20160629031759 66 293 5.0 0.0 0.00 0.00 0.00 1013.8
20160629031559 66 287 5.0 0.0 0.00 0.00 0.00 1013.8
20160629031459 66 305 7.0 0.0 0.00 0.00 0.00 1013.8
20160629031359 66 297 5.0 0.0 0.00 0.00 0.00 1013.8
20160629031259 66 281 6.0 0.0 0.00 0.00 0.00 1013.8
20160629031159 66 288 6.0 0.0 0.00 0.00 0.00 1013.8
20160629031059 66 287 7.0 0.0 0.00 0.00 0.00 1013.8
20160629030759 66 291 5.0 0.0 0.00 0.00 0.00 1013.7
20160629030659 66 273 0.0 0.0 0.00 0.00 0.00 1013.7
20160629030559 67 273 0.0 0.0 0.00 0.00 0.00 1013.8
20160629030359 66 298 3.0 0.0 0.00 0.00 0.00 1013.7
20160629030159 66 295 7.0 0.0 0.00 0.00 0.00 1013.7
20160629030059 66 293 7.0 0.0 0.00 0.00 0.00 1013.7
20160629025959 66 287 0.0 0.0 0.00 0.00 0.00 1013.8
20160629025859 66 287 0.0 0.0 0.00 0.00 0.00 1013.8
20160629025759 67 287 0.0 0.0 0.00 0.00 0.00 1013.8
20160629025559 66 287 0.0 0.0 0.00 0.00 0.00 1013.8
20160629025459 66 287 0.0 0.0 0.00 0.00 0.00 1013.8
20160629025359 66 287 0.0 0.0 0.00 0.00 0.00 1013.7
20160629025159 66 298 4.0 0.0 0.00 0.00 0.00 1013.7
20160629024959 67 316 7.0 0.0 0.00 0.00 0.00 1013.7
20160629024859 67 280 5.0 0.0 0.00 0.00 0.00 1013.7
20160629024759 67 293 5.0 0.0 0.00 0.00 0.00 1013.7
20160629024559 67 304 5.0 0.0 0.00 0.00 0.00 1013.7
20160629024459 67 295 7.0 0.0 0.00 0.00 0.00 1013.7
20160629024359 67 302 6.0 0.0 0.00 0.00 0.00 1013.7
20160629024159 67 298 7.0 0.0 0.00 0.00 0.00 1013.6
20160629024059 67 294 5.0 0.0 0.00 0.00 0.00 1013.6
20160629023959 68 308 7.0 0.0 0.00 0.00 0.00 1013.6
20160629023859 67 305 6.0 0.0 0.00 0.00 0.00 1013.6
20160629023659 69 262 3.0 0.0 0.00 0.00 0.00 1013.6
20160629023559 70 274 7.0 0.0 0.00 0.00 0.00 1013.6
20160629023459 70 293 9.0 0.0 0.00 0.00 0.00 1013.6
20160629023359 70 290 7.0 0.0 0.00 0.00 0.00 1013.6
20160629023259 71 308 6.0 0.0 0.00 0.00 0.00 1013.6
20160629023159 71 287 6.0 0.0 0.00 0.00 0.00 1013.6
20160629023059 71 295 7.0 0.0 0.00 0.00 0.00 1013.6
20160629022959 71 287 6.0 0.0 0.00 0.00 0.00 1013.6
20160629022859 71 311 3.0 0.0 0.00 0.00 0.00 1013.6
20160629022559 70 274 4.0 0.0 0.00 0.00 0.00 1013.6
20160629022459 70 300 7.0 0.0 0.00 0.00 0.00 1013.6
20160629022359 70 278 7.0 0.0 0.00 0.00 0.00 1013.6
20160629022259 72 290 7.0 0.0 0.00 0.00 0.00 1013.6
20160629022059 72 281 6.0 0.0 0.00 0.00 0.00 1013.6
20160629021959 72 284 7.0 0.0 0.00 0.00 0.00 1013.6
20160629021859 71 287 8.0 0.0 0.00 0.00 0.00 1013.6
20160629021759 71 284 9.0 0.0 0.00 0.00 0.00 1013.6
20160629021700 72 287 6.0 0.0 0.00 0.00 0.00 1013.6
20160629021559 73 284 8.0 0.0 0.00 0.00 0.00 1013.6
20160629021359 73 297 6.0 0.0 0.00 0.00 0.00 1013.6
20160629021259 74 305 8.0 0.0 0.00 0.00 0.00 1013.6
20160629021159 73 297 8.0 0.0 0.00 0.00 0.00 1013.6
20160629021059 74 302 6.0 0.0 0.00 0.00 0.00 1013.6
20160629020959 76 290 9.0 0.0 0.00 0.00 0.00 1013.6
20160629020759 74 273 8.0 0.0 0.00 0.00 0.00 1013.6
20160629020659 73 294 8.0 0.0 0.00 0.00 0.00 1013.6
20160629020559 74 273 7.0 0.0 0.00 0.00 0.00 1013.6
20160629020459 72 302 7.0 0.0 0.00 0.00 0.00 1013.6
20160629020359 72 283 7.0 0.0 0.00 0.00 0.00 1013.7
20160629020259 72 288 9.0 0.0 0.00 0.00 0.00 1013.7
20160629020059 74 291 8.0 0.0 0.00 0.00 0.00 1013.7
20160629015959 73 257 5.0 0.0 0.00 0.00 0.00 1013.6
20160629015759 75 270 8.0 0.0 0.00 0.00 0.00 1013.6
20160629015659 74 290 8.0 0.0 0.00 0.00 0.00 1013.6
20160629015559 74 266 9.0 0.0 0.00 0.00 0.00 1013.6
20160629015459 75 278 8.0 0.0 0.00 0.00 0.00 1013.6
20160629015359 77 271 10.0 0.0 0.00 0.00 0.00 1013.6
20160629015259 77 262 9.0 0.0 0.00 0.00 0.00 1013.6
20160629015159 75 269 11.0 0.0 0.00 0.00 0.00 1013.6
20160629015059 74 305 7.0 0.0 0.00 0.00 0.00 1013.6
20160629014959 74 285 9.0 0.0 0.00 0.00 0.00 1013.6
20160629014859 76 293 9.0 0.0 0.00 0.00 0.00 1013.6
20160629014759 77 273 9.0 0.0 0.00 0.00 0.00 1013.6
20160629014559 73 269 10.0 0.0 0.00 0.00 0.00 1013.6
20160629014459 72 269 9.0 0.0 0.00 0.00 0.00 1013.7
20160629014159 74 270 8.0 0.0 0.00 0.00 0.00 1013.6
20160629014059 74 288 7.0 0.0 0.00 0.00 0.00 1013.7
20160629013959 74 253 10.0 0.0 0.00 0.00 0.00 1013.6
20160629013859 75 271 8.0 0.0 0.00 0.00 0.00 1013.6
20160629013759 75 271 8.0 0.0 0.00 0.00 0.00 1013.7
20160629013659 75 287 10.0 0.0 0.00 0.00 0.00 1013.6
20160629013559 76 287 10.0 0.0 0.00 0.00 0.00 1013.6
20160629013159 76 281 8.0 0.0 0.00 0.00 0.00 1013.6
20160629013059 76 277 6.0 0.0 0.00 0.00 0.00 1013.6
20160629012959 76 271 9.0 0.0 0.00 0.00 0.00 1013.6
20160629012859 77 274 9.0 0.0 0.00 0.00 0.00 1013.6
20160629012759 75 269 9.0 0.0 0.00 0.00 0.00 1013.6
20160629012659 74 256 8.0 0.0 0.00 0.00 0.00 1013.6
20160629012559 73 221 2.0 0.0 0.00 0.00 0.00 1013.6